Regional Weather Roundup
Issued by NWS

Home | Current Version | Previous Version | Text Only | Print | Product List | Glossary On
Versions: 1 2 3 4 5 6 7 8 9 10 11 12 13 14 15 16 17 18 19 20 21 22 23 24 25 26 27 28 29 30 31 32 33 34 35 36 37 38 39 40 41 42 43 44 45 46 47 48 49 50
000
ASUS43 KDMX 041108
RWRIA

WEATHER ROUNDUP FOR IOWA
NATIONAL WEATHER SERVICE DES MOINES IA
600 AM CDT WED MAY 04 2016

NOTE: "FAIR" INDICATES FEW OR NO CLOUDS BELOW 12,000 FEET WITH NO
SIGNIFICANT WEATHER AND/OR OBSTRUCTIONS TO VISIBILITY.

* - THESE STATIONS ARE NOT NWS STATIONS...THUS NOT UNDER NWS
QUALITY CONTROL.  THEY ALSO DO NOT REPORT WEATHER SUCH
AS PRECIPITATION OR FOG.

IAZ001>003-012>014-020>022-031>034-043>046-041200-
   NORTHWEST IOWA

CITY           SKY/WX    TMP DP  RH WIND       PRES   REMARKS
CARROLL *      CLEAR     45  37  76 N12       29.91R
CHEROKEE *     CLEAR     43  36  75 N6        29.96R
DENISON *      CLEAR     46  36  66 N9        29.92R
LE MARS *      CLEAR     45  34  65 NE8G14    29.99R
ORANGE CITY *  CLEAR     43  34  70 N12       29.98R
SHELDON *      CLEAR     39  34  81 N10       29.97R WCI  32
SIOUX CITY     CLEAR     42  35  76 N7        29.98R
SPENCER        CLEAR     45  33  63 N15       29.95R
STORM LAKE *   CLEAR     45  36  70 N13       29.95R
$$

IAZ055>058-069>071-079>083-090>094-041200-
   SOUTHWEST IOWA

CITY           SKY/WX    TMP DP  RH WIND       PRES   REMARKS
ATLANTIC *     CLEAR     46  36  66 N12       29.91R
AUDUBON *      CLEAR     46  36  66 NW8       29.92R
CLARINDA *       N/A    N/A N/A N/A MISG        N/A
COUNCIL BLFS * CLEAR     48  37  66 NW9       29.94R
CRESTON *      CLEAR     46  36  66 N14       29.88R
HARLAN  *      CLEAR     46  36  66 N10       29.96R
LAMONI         CLEAR     49  36  61 N13       29.84R
RED OAK *      CLEAR     48  37  66 N9        29.91R
SHENANDOAH *   CLEAR     50  36  57 N10G17    29.92R
$$

IAZ047>049-059>061-072>074-084-041200-
   CENTRAL IOWA

CITY           SKY/WX    TMP DP  RH WIND       PRES   REMARKS
AMES           CLEAR     46  36  68 N10       29.87R
ANKENY *       CLEAR     48  37  66 N13       29.86R
BOONE *        CLEAR     45  36  70 N13       29.87R
CHARITON *     CLEAR     48  37  66 N12       29.83R
DES MOINES     CLEAR     51  35  54 N9        29.86R
GRINNELL*      CLEAR     48  41  76 N14       29.84R
KNOXVILLE *    CLEAR     50  39  66 N10       29.82R
MARSHALLTOWN   CLEAR     47  39  74 N14       29.84R
NEWTON *       CLEAR     48  41  76 N14       29.83R
PELLA *        CLEAR     48  41  76 N8        29.84R
PERRY *          N/A     48  36  61 N12       29.89R
$$

IAZ004>006-015-016-023>025-035-036-041200-
   NORTH CENTRAL IOWA

CITY           SKY/WX    TMP DP  RH WIND       PRES   REMARKS
ALGONA *       CLEAR     45  36  70 N9        29.93R
CLARION *      CLEAR     43  34  70 N12       29.90R
ESTHERVILLE    CLEAR     42  34  73 N10       29.95R
FORT DODGE *   CLEAR     46  32  57 N7        29.91R
MASON CITY     CLEAR     45  35  68 N15       29.91R
FOREST CITY *  CLEAR     41  32  70 N7        29.92R
WEBSTER CITY * CLEAR     45  36  70 N13       29.88R
IOWA FALLS *     N/A     48  39  71 N10G16    29.89R
$$

IAZ007>011-017>019-026>030-037>042-050>054-066-041200-
   NORTHEAST IOWA

CITY           SKY/WX    TMP DP  RH WIND       PRES   REMARKS
CEDAR RAPIDS   CLEAR     48  45  89 N12       29.79R
CHARLES CITY * CLEAR     45  37  76 N13       29.88R
CLINTON *      PTCLDY    44  44 100 N13       29.76R FOG
DECORAH *      PTCLDY    45  37  76 N10       29.84R
DUBUQUE        CLEAR     45  43  93 N12       29.79R
MONTICELLO *   PTCLDY    46  45  93 N14       29.79R
OELWEIN *      CLEAR     46  41  81 N15       29.84R
WATERLOO       CLEAR     47  39  74 N14       29.84R
$$

IAZ064-065-067-068-078-041200-
   EAST CENTRAL IOWA

CITY           SKY/WX    TMP DP  RH WIND       PRES   REMARKS
DAVENPORT      FOG       45  43  93 N9        29.76R VSB 1/2
IOWA CITY      CLEAR     49  45  86 N10       29.79R
MT. PLEASANT * CLEAR     50  48  93 N8        29.76R
MUSCATINE *    CLEAR     46  45  93 CALM      29.77R
QUAD CITIES    CLEAR     48  45  89 N7        29.74R
$$

IAZ062-063-075>077-085>089-095>099-041200-
   SOUTHEAST IOWA

CITY           SKY/WX    TMP DP  RH WIND       PRES   REMARKS
BURLINGTON     CLEAR     46  45  96 N8        29.73R
FAIRFIELD *    CLEAR     48  45  87 N12       29.78R
FORT MADISON * CLEAR     46  45  93 N6        29.75R
KEOKUK *       CLEAR     54  46  76 NW8       29.73R
OSKALOOSA *      N/A     48  43  81 N13       29.81R
OTTUMWA        CLEAR     47  43  86 N13       29.79R
WASHINGTON *   CLEAR     48  48 100 N10       29.78R
$$

ABBREVIATIONS USED IN REMARKS
   TC - TEMPERATURES IN CELSIUS
  WCI - WIND CHILL INDEX
   HX - HEAT INDEX
  VSB - VISIBILITY
$$





USA.gov is the U.S. government's official web portal to all federal, state and local government web resources and services.